Tiempo atmosférico en la estación meteorológica de Elgeta, Gipuzkoa (470 m.)



Fecha
DESCASC
Temp. máxima en grados centígrados (hora)
DESCASC
Temp. mínima en grados centígrados (hora)
DESCASC
Temp. media en grados centígrados
DESCASC
Racha de viento máxima en m/sg (hora)
DESCASC
Velocidad máxima media en intervalos de 10 minutos(hora)
DESCASC
Precipitaciones diarias en mm
DESCASC
Precipitaciones de 00:00 a 06:00 en mm
DESCASC
Precipitaciones de 06:00 a 12:00 en mm
DESCASC
Precipitaciones de 12:00 a 18:00 en mm
DESCASC
Precipitaciones de 18:00 a 24:00 en mm
DESCASC
18-02-2018 7.3 (21:20) 4.3 (01:50) 5.8 6.94 (18:20) 3.33 (18:10) 0.2 0 0.2 0 0
17-02-2018 10.3 (00:00) 4.9 (22:00) 7.6 9.17 (02:20) 3.61 (04:30) 13 3.6 7.8 1.6 0
16-02-2018 18 (16:00) 10.3 (23:40) 14.2 5 (13:20) 2.22 (23:59) 2 0 2 0 0
15-02-2018 16.2 (14:30) 8.3 (00:00) 12.3 6.11 (19:30) 2.5 (19:30) 0 0 0 0 0
14-02-2018 11.5 (17:10) 3.5 (00:00) 7.5 7.22 (15:30) 2.5 (07:00) 5.6 2 2.2 1.4 0
13-02-2018 4.6 (16:00) -1.6 (-00:0) 1.5 10.83 (07:00) 3.61 (10:40) 5.6 0 0 2.8 2.8
12-02-2018 4.2 (00:00) -1.4 (-00:0) 1.4 7.22 (05:40) 3.06 (05:40) 12.8 4.6 5.2 2.8 0.2
11-02-2018 8.7 (14:10) 3 (00:00) 5.8 11.67 (18:00) 3.89 (19:00) 26.6 5.2 11.8 6.4 3.2
10-02-2018 4.8 (15:00) 1.3 (00:00) 3.1 8.89 (09:00) 3.61 (08:10) 10.4 0 4.4 3.8 2.2
09-02-2018 4.1 (16:40) -2.5 (-00:0) 0.8 10 (17:30) 4.44 (17:30) 19.4 0.4 1 15.4 2.6
08-02-2018 2.1 (16:40) -1.4 (-00:0) 0.3 5 (14:50) 2.22 (01:00) 14 0.4 1.6 11 1
07-02-2018 3.2 (13:30) -0.5 (-00:0) 1.4 5.56 (16:20) 3.06 (19:00) 13.4 1.2 2 9.2 1
06-02-2018 2.7 (11:10) -0.2 (00:00) 1.3 6.67 (00:40) 2.78 (15:40) 9 4.4 0.8 3.2 0.6
05-02-2018 2.6 (02:10) 0.5 (00:00) 1.5 8.33 (01:10) 3.33 (02:10) 31.6 0.8 7 7.8 16
04-02-2018 5.6 (16:20) 1.1 (00:00) 3.3 5.83 (05:40) 2.5 (11:10) 4.8 2.8 0.2 0.4 1.4
03-02-2018 5 (17:50) 0.5 (00:00) 2.8 12.22 (19:40) 3.89 (19:50) 47.8 10.4 7.6 13.8 16
02-02-2018 2.9 (16:10) -0.3 (00:00) 1.3 8.61 (23:30) 3.33 (23:30) 31 2.4 4.2 16.8 7.6
01-02-2018 6.8 (02:20) 0.6 (00:00) 3.7 11.39 (07:10) 3.89 (09:50) 46 8.8 9.8 17.8 9.6
31-01-2018 12.1 (14:40) 0.2 (00:00) 6.2 6.67 (07:50) 3.06 (07:50) 0 0 0 0 0
30-01-2018 9.5 (15:20) 2.7 (00:00) 6.1 4.17 (23:50) 2.78 (23:50) 0 0 0 0 0
29-01-2018 13 (14:10) 3.7 (00:00) 8.4 4.44 (18:40) 2.78 (01:50) 0 0 0 0 0
28-01-2018 10 (15:00) 1 (00:00) 5.5 3.06 (23:00) 2.22 (22:50) 0 0 0 0 0
27-01-2018 6.9 (13:20) 2.2 (00:00) 4.6 8.61 (14:10) 3.89 (14:20) 7.4 6.6 0.8 0 0
26-01-2018 5.7 (14:50) 3.7 (00:00) 4.7 13.06 (21:40) 5 (08:30) 28.4 6.8 9.6 4.6 7.4
25-01-2018 10.2 (08:30) 3.9 (00:00) 7 9.17 (09:30) 4.17 (16:20) 7 0 0 2 5
24-01-2018 14 (14:20) 5.3 (00:00) 9.7 9.17 (23:10) 3.61 (21:10) 0 0 0 0 0
23-01-2018 12.4 (13:50) 7.8 (00:00) 10.1 4.44 (01:00) 1.94 (01:30) 0 0 0 0 0
22-01-2018 12.3 (14:30) 7.2 (00:00) 9.8 5 (20:20) 1.94 (11:40) 0 0 0 0 0

Gráficas

Temp. máximas Temp. mínimas Temp. medias Precipitaciones Rachas de viento máximas Velocidades máximas media en intervalos de 10 minutos

Datos horarios

Fecha y hora oficial Temperatura (ºC) Velocidad del viento (km/h) Dirección del viento Racha (km/h) Dirección de racha Precipitación (mm) Presión (hPa) Tendencia (hPa) Humedad (%)
2018-02-20 23:00:00 6.6 11 Noroeste 26 Noroeste 0 -- -- 100
2018-02-20 22:00:00 6.6 8 Noroeste 20 Oeste 0 -- -- 100
2018-02-20 21:00:00 6.6 7 Norte 21 Oeste 0 -- -- 100
2018-02-20 20:00:00 7 8 Noroeste 24 Norte 0 -- -- 100
2018-02-20 19:00:00 7.2 10 Noroeste 28 Oeste 0 -- -- 97
2018-02-20 18:00:00 7.2 6 Noroeste 23 Oeste 0 -- -- 97
2018-02-20 17:00:00 7.4 6 Norte 25 Noroeste 0 -- -- 96
2018-02-20 16:00:00 7.3 9 Norte 29 Norte 0 -- -- 98
2018-02-20 15:00:00 7.8 8 Noroeste 22 Noroeste 0 -- -- 96
2018-02-20 14:00:00 7.4 7 Norte 24 Norte 0 -- -- 98
2018-02-20 13:00:00 7.8 7 Norte 28 Oeste 0 -- -- 99
2018-02-20 12:00:00 7.4 10 Noroeste 26 Nordeste 0 -- -- 100
2018-02-20 11:00:00 7.1 10 Norte 28 Nordeste 0 -- -- 100
2018-02-20 10:00:00 7.2 10 Noroeste 23 Norte 0 -- -- 100
2018-02-20 09:00:00 7.1 10 Noroeste 21 Oeste 0 -- -- 100
2018-02-20 08:00:00 7.1 9 Norte 36 Noroeste 0 -- -- 100
2018-02-20 07:00:00 7.3 9 Noroeste 29 Noroeste 0 -- -- 100
2018-02-20 06:00:00 7.5 9 Noroeste 29 Oeste 0 -- -- 100
2018-02-20 05:00:00 7.6 7 Norte 24 Oeste 0 -- -- 100
2018-02-20 04:00:00 7.8 8 Noroeste 24 Oeste 0 -- -- 100
2018-02-20 03:00:00 7.9 10 Norte 26 Nordeste 0 -- -- 100
2018-02-20 02:00:00 8.2 10 Norte 30 Nordeste 0 -- -- 100
2018-02-20 01:00:00 8.4 11 Norte 30 Norte 0 -- -- 100
2018-02-20 00:00:00 8.4 6 Norte 27 Norte 0 -- -- 100
2018-02-19 23:00:00 8.5 13 Norte 28 Nordeste 0 -- -- 100
2018-02-19 22:00:00 8.5 9 Norte 26 Este 0 -- -- 100
2018-02-19 21:00:00 8.4 10 Noroeste 21 Oeste 0 -- -- 100
2018-02-19 20:00:00 8.4 10 Noroeste 23 Noroeste 0 -- -- 100
2018-02-19 19:00:00 8.3 8 Noroeste 19 Noroeste 0 -- -- 100
2018-02-19 18:00:00 8.3 6 Noroeste 23 Oeste 0 -- -- 100
2018-02-19 17:00:00 8.4 7 Norte 22 Norte 0 -- -- 100
2018-02-19 16:00:00 8.5 4 Noroeste 28 Sudoeste 0 -- -- 100
2018-02-19 15:00:00 8.5 9 Noroeste 22 Noroeste 0 -- -- 100
2018-02-19 14:00:00 8.5 9 Noroeste 21 Noroeste 0 -- -- 100
2018-02-19 13:00:00 8.5 5 Norte 20 Oeste 0 -- -- 100
2018-02-19 12:00:00 8.3 8 Noroeste 17 Oeste 0 -- -- 100
2018-02-19 11:00:00 8 6 Noroeste 15 Noroeste 0 -- -- 100
2018-02-19 10:00:00 7.7 8 Oeste 19 Noroeste 0 -- -- 100
2018-02-19 09:00:00 7.4 8 Oeste 21 Oeste 0 -- -- 100
2018-02-19 08:00:00 7.2 9 Oeste 17 Noroeste 0 -- -- 100
2018-02-19 07:00:00 7.1 7 Noroeste 21 Noroeste 0 -- -- 100
2018-02-19 06:00:00 7.1 11 Noroeste 25 Noroeste 0 -- -- 100
2018-02-19 05:00:00 7.2 9 Noroeste 22 Noroeste 0 -- -- 100
2018-02-19 04:00:00 7.4 7 Noroeste 20 Noroeste 0 -- -- 100
2018-02-19 03:00:00 7.3 7 Noroeste 18 Noroeste 0 -- -- 100
2018-02-19 02:00:00 7.4 9 Noroeste 21 Norte 0 -- -- 100
2018-02-19 01:00:00 7.3 9 Noroeste 19 Noroeste 0 -- -- 100
2018-02-19 00:00:00 7.2 9 Noroeste 23 Noroeste 0 -- -- 100
2018-02-18 23:00:00 7.2 7 Noroeste 15 Oeste 0 -- -- 100
2018-02-18 22:00:00 7.1 7 Noroeste 18 Oeste 0 -- -- 100
2018-02-18 21:00:00 7.2 4 Noroeste 14 Oeste 0 -- -- 100
2018-02-18 20:00:00 7.2 8 Noroeste 25 Noroeste 0 -- -- 100
2018-02-18 19:00:00 7.1 10 Oeste 25 Noroeste 0 -- -- 100
2018-02-18 18:00:00 6.7 12 Noroeste 25 Noroeste 0 -- -- 100
2018-02-18 17:00:00 6.5 8 Noroeste 21 Oeste 0 -- -- 100
2018-02-18 16:00:00 6.4 6 Noroeste 19 Noroeste 0 -- -- 97
2018-02-18 15:00:00 6.3 5 Norte 17 Noroeste 0 -- -- 97
2018-02-18 14:00:00 6.3 7 Noroeste 21 Noroeste 0 -- -- 98
2018-02-18 13:00:00 6.5 9 Noroeste 21 Noroeste 0 -- -- 94
2018-02-18 12:00:00 6.7 8 Noroeste 19 Oeste 0 -- -- 92
2018-02-18 11:00:00 6.3 7 Noroeste 21 Noroeste 0 -- -- 96
2018-02-18 10:00:00 6 8 Noroeste 24 Oeste 0 -- -- 100
2018-02-18 09:00:00 5.4 6 Noroeste 17 Noroeste 0 -- -- 100
2018-02-18 08:00:00 5.1 5 Noroeste 15 Oeste 0 -- -- 100
2018-02-18 07:00:00 4.8 6 Noroeste 15 Noroeste 0.2 -- -- 100
2018-02-18 06:00:00 4.7 3 Noroeste 10 Noroeste 0 -- -- 100
2018-02-18 05:00:00 4.8 4 Noroeste 12 Noroeste 0 -- -- 100
2018-02-18 04:00:00 4.6 6 Oeste 13 Oeste 0 -- -- 100
2018-02-18 03:00:00 4.8 4 Noroeste 15 Noroeste 0 -- -- 100
2018-02-18 02:00:00 4.3 6 Oeste 14 Oeste 0 -- -- 100
2018-02-18 01:00:00 4.9 7 Oeste 13 Oeste 0 -- -- 100
2018-02-18 00:00:00 5.2 4 Oeste 9 Oeste 0 -- -- 100
2018-02-17 23:00:00 5.1 5 Oeste 12 Oeste 0 -- -- 100
2018-02-17 22:00:00 4.9 4 Oeste 9 Noroeste 0 -- -- 99
2018-02-17 21:00:00 5.7 5 Noroeste 22 Oeste 0 -- -- 94
2018-02-17 20:00:00 5.9 8 Oeste 15 Noroeste 0 -- -- 95
2018-02-17 19:00:00 5.8 6 Oeste 18 Noroeste 0 -- -- 96
2018-02-17 18:00:00 6.7 6 Norte 21 Norte 0 -- -- 92
2018-02-17 17:00:00 7.3 7 Noroeste 21 Oeste 0 -- -- 93
2018-02-17 16:00:00 7.4 8 Noroeste 23 Norte 0.4 -- -- 94
2018-02-17 15:00:00 7.5 7 Noroeste 23 Oeste 0.4 -- -- 94
2018-02-17 14:00:00 7.1 9 Noroeste 24 Nordeste 0.8 -- -- 93
2018-02-17 13:00:00 8.6 9 Norte 21 Nordeste 0 -- -- 89
2018-02-17 12:00:00 7.4 5 Norte 21 Noroeste 1 -- -- 100
2018-02-17 11:00:00 6.4 9 Noroeste 25 Oeste 1.2 -- -- 100
2018-02-17 10:00:00 6.3 8 Noroeste 15 Oeste 1.6 -- -- 100
2018-02-17 09:00:00 6 8 Noroeste 19 Noroeste 2.4 -- -- 100
2018-02-17 08:00:00 6 6 Oeste 16 Noroeste 0.8 -- -- 100
2018-02-17 07:00:00 5.9 10 Noroeste 24 Noroeste 0.8 -- -- 100
2018-02-17 06:00:00 6.6 7 Noroeste 23 Norte 0.8 -- -- 100
2018-02-17 05:00:00 7.1 9 Norte 31 Oeste 1 -- -- 100
2018-02-17 04:00:00 8.3 8 Norte 25 Noroeste 0.6 -- -- 100
2018-02-17 03:00:00 9 9 Noroeste 33 Oeste 1.2 -- -- 100
2018-02-17 02:00:00 9.7 10 Noroeste 23 Oeste 0 -- -- 100
2018-02-17 01:00:00 9.7 10 Oeste 20 Oeste 0 -- -- 100
2018-02-17 00:00:00 10.3 8 Oeste 15 Oeste 0 -- -- 100
2018-02-16 23:00:00 10.8 4 Noroeste 15 Noroeste 0 -- -- 95
2018-02-16 22:00:00 12.1 5 Oeste 12 Noroeste 0 -- -- 85
2018-02-16 21:00:00 11.8 4 Sudoeste 8 Sudoeste 0 -- -- 86
2018-02-16 20:00:00 12.5 4 Sur 16 Sudeste 0 -- -- 82
2018-02-16 19:00:00 13.1 2 Sur 10 Nordeste 0 -- -- 80
2018-02-16 18:00:00 15.2 3 Noroeste 18 Sudeste 0 -- -- 74
2018-02-16 17:00:00 15.8 5 Norte 15 Este 0 -- -- 69
2018-02-16 16:00:00 18 4 Este 13 Oeste 0 -- -- 62
2018-02-16 15:00:00 17.2 6 Nordeste 14 Norte 0 -- -- 68
2018-02-16 14:00:00 15.7 5 Norte 18 Sudeste 0 -- -- 72
2018-02-16 13:00:00 15.4 4 Sudoeste 13 Sudeste 0 -- -- 74
2018-02-16 12:00:00 14.6 5 Este 15 Este 0 -- -- 86
2018-02-16 11:00:00 12.2 2 Sudeste 7 Sudeste 0.2 -- -- 100
2018-02-16 10:00:00 10.9 4 Sur 7 Sudeste 1.8 -- -- 100
2018-02-16 09:00:00 10.9 0 Calma 8 Sudeste 0 -- -- 94
2018-02-16 08:00:00 10.9 3 Sur 7 Sudoeste 0 -- -- 94
2018-02-16 07:00:00 10.6 3 Sur 6 Sudeste 0 -- -- 94
2018-02-16 06:00:00 10.8 3 Sudoeste 10 Sudeste 0 -- -- 94
2018-02-16 05:00:00 10.7 4 Sudeste 8 Sudeste 0 -- -- 94
2018-02-16 04:00:00 11 3 Sur 9 Sudeste 0 -- -- 93
2018-02-16 03:00:00 11.2 3 Sudoeste 5 Sudoeste 0 -- -- 91
2018-02-16 02:00:00 11.3 0 Calma 8 Sudoeste 0 -- -- 91
2018-02-16 01:00:00 11.6 4 Sudoeste 10 Sudoeste 0 -- -- 89
2018-02-16 00:00:00 11.7 3 Sudoeste 12 Sudoeste 0 -- -- 88
2018-02-15 23:00:00 12.5 4 Sur 17 Oeste 0 -- -- 82
2018-02-15 22:00:00 12.7 5 Sudoeste 16 Oeste 0 -- -- 82
2018-02-15 21:00:00 13.2 5 Oeste 18 Este 0 -- -- 81
2018-02-15 20:00:00 13.7 5 Sudeste 22 Sudoeste 0 -- -- 77
2018-02-15 19:00:00 13.5 6 Sudoeste 22 Sudeste 0 -- -- 77
2018-02-15 18:00:00 13.8 6 Sur 14 Este 0 -- -- 77
2018-02-15 17:00:00 14.6 4 Sudoeste 12 Este 0 -- -- 73
2018-02-15 16:00:00 15.2 3 Norte 20 Sudeste 0 -- -- 75
2018-02-15 15:00:00 15.4 4 Nordeste 17 Sudeste 0 -- -- 71
2018-02-15 14:00:00 14.8 5 Este 12 Sudeste 0 -- -- 75
2018-02-15 13:00:00 14.6 3 Este 10 Sudeste 0 -- -- 76
2018-02-15 12:00:00 14.5 4 Este 13 Sudeste 0 -- -- 77
2018-02-15 11:00:00 13.9 8 Sudeste 13 Sudeste 0 -- -- 77
2018-02-15 10:00:00 11.3 3 Sudeste 15 Sur 0 -- -- 87
2018-02-15 09:00:00 10.3 6 Sudeste 15 Sur 0 -- -- 91
2018-02-15 08:00:00 9.1 4 Sur 10 Sudoeste 0 -- -- 94
2018-02-15 07:00:00 9.5 3 Oeste 14 Noroeste 0 -- -- 92
2018-02-15 06:00:00 8.7 3 Noroeste 9 Sudoeste 0 -- -- 98
2018-02-15 05:00:00 8.7 3 Sudoeste 10 Este 0 -- -- 96
2018-02-15 04:00:00 9.3 3 Sudoeste 14 Sur 0 -- -- 95
2018-02-15 03:00:00 9.6 5 Sudoeste 20 Sur 0 -- -- 91
2018-02-15 02:00:00 9.3 3 Sur 13 Sur 0 -- -- 94
2018-02-15 01:00:00 8.8 4 Sudoeste 12 Este 0 -- -- 95
2018-02-15 00:00:00 9.2 3 Sur 12 Sudoeste 0 -- -- 96
2018-02-14 23:00:00 8.9 4 Sudeste 10 Sudoeste 0 -- -- 97
2018-02-14 22:00:00 8.6 3 Sudoeste 10 Sur 0 -- -- 99
2018-02-14 21:00:00 8.8 4 Sur 9 Oeste 0 -- -- 98
2018-02-14 20:00:00 8.7 4 Sur 9 Oeste 0 -- -- 100
2018-02-14 19:00:00 9.2 4 Sur 10 Sur 0 -- -- 97
2018-02-14 18:00:00 10.6 4 Este 23 Noroeste 0 -- -- 90
2018-02-14 17:00:00 11.4 5 Noroeste 15 Noroeste 0 -- -- 83
2018-02-14 16:00:00 10.7 3 Nordeste 26 Oeste 0 -- -- 92
2018-02-14 15:00:00 9.7 4 Nordeste 14 Sudeste 0.4 -- -- 94
2018-02-14 14:00:00 9.5 5 Este 14 Nordeste 0.2 -- -- 95
2018-02-14 13:00:00 9 4 Norte 14 Este 0.8 -- -- 97
2018-02-14 12:00:00 8.6 6 Nordeste 14 Este 0.6 -- -- 97
2018-02-14 11:00:00 8.5 6 Norte 16 Norte 0.2 -- -- 95
2018-02-14 10:00:00 7.2 5 Sur 15 Este 0.6 -- -- 100
2018-02-14 09:00:00 5.6 3 Sudoeste 12 Sudeste 0.6 -- -- 100
2018-02-14 08:00:00 5.3 4 Sur 14 Sudeste 0.2 -- -- 100
2018-02-14 07:00:00 4.2 9 Sudeste 15 Sudeste 0 -- -- 100
2018-02-14 06:00:00 3.8 5 Sur 12 Sudeste 0 -- -- 100
2018-02-14 05:00:00 3.7 5 Sudeste 10 Sudeste 0.2 -- -- 100
2018-02-14 04:00:00 3.6 3 Sudeste 11 Sudeste 0.4 -- -- 100
2018-02-14 03:00:00 3.6 8 Sudeste 13 Sudeste 0.2 -- -- 100
2018-02-14 02:00:00 3.6 5 Sudeste 8 Sudeste 0.8 -- -- 100
2018-02-14 01:00:00 3.7 4 Sudeste 10 Sudeste 0.4 -- -- 100
2018-02-14 00:00:00 3.6 0 Calma 4 Sudoeste 0 -- -- 100
2018-02-13 23:00:00 3.7 2 Sudoeste 5 Sur 0 -- -- 100
2018-02-13 22:00:00 3.8 3 Sur 8 Noroeste 0.4 -- -- 100
2018-02-13 21:00:00 3.9 2 Oeste 6 Norte 1 -- -- 100
2018-02-13 20:00:00 3.8 2 Norte 6 Oeste 0.6 -- -- 100
2018-02-13 19:00:00 3.7 3 Norte 10 Noroeste 0.8 -- -- 100
2018-02-13 18:00:00 3.9 4 Noroeste 13 Norte 1.2 -- -- 100
2018-02-13 17:00:00 4 5 Norte 24 Norte 0.4 -- -- 100
2018-02-13 16:00:00 4.6 7 Norte 18 Oeste 0 -- -- 94
2018-02-13 15:00:00 4.2 3 Oeste 17 Sur 0.4 -- -- 94
2018-02-13 14:00:00 4.1 5 Oeste 18 Noroeste 0.4 -- -- 93
2018-02-13 13:00:00 3.3 4 Oeste 19 Noroeste 0.4 -- -- 89
2018-02-13 12:00:00 3.6 5 Norte 24 Oeste 0 -- -- 83
2018-02-13 11:00:00 3.1 7 Norte 35 Norte 0 -- -- 83
2018-02-13 10:00:00 2.7 9 Sudeste 37 Sudoeste 0 -- -- 83
2018-02-13 09:00:00 2.5 10 Oeste 31 Noroeste 0 -- -- 79
2018-02-13 08:00:00 1.7 11 Este 32 Este 0 -- -- 81
2018-02-13 07:00:00 0.6 8 Este 39 Sudeste 0 -- -- 93
2018-02-13 06:00:00 0.2 6 Nordeste 25 Sudoeste 0 -- -- 100
2018-02-13 05:00:00 -1.3 5 Sudeste 11 Sudeste 0 -- -- 100
2018-02-13 04:00:00 -1.6 5 Sur 13 Sur 0 -- -- 100
2018-02-13 03:00:00 -1.4 5 Sudeste 12 Sudeste 0 -- -- 100
2018-02-13 02:00:00 -1.2 5 Sudeste 12 Sudeste 0 -- -- 100
2018-02-13 01:00:00 -1.2 7 Sudeste 14 Sudeste 0 -- -- 100
2018-02-13 00:00:00 -1.4 9 Sudeste 12 Sudeste 0 -- -- 100
2018-02-12 23:00:00 -0.6 2 Sudoeste 8 Sudeste 0 -- -- 100
2018-02-12 22:00:00 -0.2 4 Sudeste 8 Sudeste 0 -- -- 100
2018-02-12 21:00:00 0.1 3 Sur 8 Sudeste 0.2 -- -- 100
2018-02-12 20:00:00 -0.1 3 Oeste 5 Sudeste 0 -- -- 100
2018-02-12 19:00:00 -0.1 2 Oeste 8 Oeste 0 -- -- 100
2018-02-12 18:00:00 0.3 4 Noroeste 9 Noroeste 0.4 -- -- 100
2018-02-12 17:00:00 0.2 3 Noroeste 15 Oeste 0.8 -- -- 100
2018-02-12 16:00:00 0.1 7 Oeste 17 Oeste 0.4 -- -- 100
2018-02-12 15:00:00 0.5 4 Noroeste 18 Oeste 0.6 -- -- 100
2018-02-12 14:00:00 0.9 7 Noroeste 14 Noroeste 0.2 -- -- 100
2018-02-12 13:00:00 1.7 5 Noroeste 10 Oeste 0.4 -- -- 100
2018-02-12 12:00:00 1 4 Sur 13 Sudeste 1 -- -- 100
2018-02-12 11:00:00 1.7 4 Sudeste 14 Oeste 0.4 -- -- 100
2018-02-12 10:00:00 1.1 3 Nordeste 18 Noroeste 1.2 -- -- 100
2018-02-12 09:00:00 0.1 4 Norte 8 Norte 0.4 -- -- 100
2018-02-12 08:00:00 0.1 4 Noroeste 25 Noroeste 0.8 -- -- 100
2018-02-12 07:00:00 0.6 8 Noroeste 20 Oeste 1.4 -- -- 100
2018-02-12 06:00:00 1.9 9 Noroeste 26 Oeste 0.8 -- -- 100
2018-02-12 05:00:00 2.9 6 Noroeste 15 Noroeste 0.2 -- -- 100
2018-02-12 04:00:00 3 8 Oeste 23 Noroeste 0.8 -- -- 100
2018-02-12 03:00:00 3.2 8 Noroeste 21 Oeste 2.2 -- -- 100
2018-02-12 02:00:00 3.7 8 Noroeste 21 Noroeste 0.2 -- -- 100
2018-02-12 01:00:00 4 6 Noroeste 23 Oeste 0.4 -- -- 100
2018-02-12 00:00:00 4.2 10 Noroeste 33 Noroeste 0.8 -- -- 100
2018-02-11 23:00:00 4.7 9 Noroeste 23 Noroeste 0.4 -- -- 100
2018-02-11 22:00:00 5 8 Noroeste 23 Norte 0.6 -- -- 100
2018-02-11 21:00:00 5.4 11 Noroeste 28 Noroeste 0.6 -- -- 100
2018-02-11 20:00:00 5.7 8 Noroeste 32 Noroeste 0.2 -- -- 100
2018-02-11 19:00:00 6.1 14 Noroeste 42 Oeste 0.6 -- -- 100
2018-02-11 18:00:00 7 13 Noroeste 42 Oeste 1.6 -- -- 100
2018-02-11 17:00:00 7.8 7 Noroeste 18 Noroeste 2.4 -- -- 100
2018-02-11 16:00:00 7.8 4 Noroeste 12 Noroeste 0.6 -- -- 100
2018-02-11 15:00:00 8.4 2 Norte 12 Noroeste 1 -- -- 100
2018-02-11 14:00:00 8.6 4 Norte 12 Noroeste 0.8 -- -- 100
2018-02-11 13:00:00 7 0 Calma 9 Sudeste 0 -- -- 100
2018-02-11 12:00:00 6.4 8 Sur 11 Sur 0 -- -- 100
2018-02-11 11:00:00 6 2 Sur 10 Sur 0.4 -- -- 100
2018-02-11 10:00:00 5.6 3 Sur 8 Sudeste 2.8 -- -- 100
2018-02-11 09:00:00 5.1 4 Sur 9 Oeste 3.4 -- -- 100
2018-02-11 08:00:00 5.8 2 Norte 10 Noroeste 3 -- -- 100
2018-02-11 07:00:00 4.4 3 Sudeste 8 Sudeste 2.2 -- -- 100
2018-02-11 06:00:00 3.9 3 Sur 9 Sudeste 1 -- -- 100
2018-02-11 05:00:00 3.7 6 Sur 13 Sudeste 0.8 -- -- 100
2018-02-11 04:00:00 3.7 4 Sur 10 Sur 0.6 -- -- 100
2018-02-11 03:00:00 3.3 2 Sudeste 9 Sudeste 1.8 -- -- 100
2018-02-11 02:00:00 3.2 4 Sur 7 Sur 0.8 -- -- 100
2018-02-11 01:00:00 3.2 6 Sudeste 10 Sudeste 0.2 -- -- 100
2018-02-11 00:00:00 3.1 4 Sudeste 9 Noroeste 0 -- -- 100
2018-02-10 23:00:00 3.6 3 Noroeste 8 Noroeste 0.2 -- -- 100
2018-02-10 22:00:00 3.8 0 Calma 14 Noroeste 0.4 -- -- 100
2018-02-10 21:00:00 3.7 4 Noroeste 9 Noroeste 0.8 -- -- 100
2018-02-10 20:00:00 3.4 4 Noroeste 12 Noroeste 0.6 -- -- 100
2018-02-10 19:00:00 3.2 0 Calma 10 Oeste 0.2 -- -- 100
2018-02-10 18:00:00 3.6 5 Noroeste 14 Noroeste 0.8 -- -- 100
2018-02-10 17:00:00 3.9 3 Oeste 8 Nordeste 0 -- -- 100
2018-02-10 16:00:00 4.2 5 Sur 12 Sur 1 -- -- 99
2018-02-10 15:00:00 4.8 3 Este 7 Oeste 0.6 -- -- 100
2018-02-10 14:00:00 4.7 3 Sudoeste 12 Noroeste 0 -- -- 95
2018-02-10 13:00:00 2.8 3 Sudeste 22 Noroeste 1.4 -- -- 100
2018-02-10 12:00:00 2.6 8 Oeste 29 Noroeste 0.4 -- -- 100
2018-02-10 11:00:00 2.2 6 Noroeste 22 Noroeste 0.8 -- -- 100
2018-02-10 10:00:00 1.9 6 Noroeste 22 Oeste 1.6 -- -- 100
2018-02-10 09:00:00 1.9 13 Noroeste 32 Noroeste 1.2 -- -- 100
2018-02-10 08:00:00 1.6 7 Noroeste 14 Oeste 0.2 -- -- 100
2018-02-10 07:00:00 1.8 8 Noroeste 26 Noroeste 0.2 -- -- 100
2018-02-10 06:00:00 2.4 7 Noroeste 22 Noroeste 0 -- -- 94
2018-02-10 05:00:00 1.7 3 Noroeste 13 Oeste 0 -- -- 99
2018-02-10 04:00:00 1.5 3 Noroeste 15 Noroeste 0 -- -- 100
2018-02-10 03:00:00 2 9 Oeste 22 Oeste 0 -- -- 96
2018-02-10 02:00:00 1.5 8 Oeste 15 Oeste 0 -- -- 100
2018-02-10 01:00:00 1.6 9 Oeste 18 Oeste 0 -- -- 100
2018-02-10 00:00:00 1.9 13 Noroeste 30 Noroeste 0.6 -- -- 100
2018-02-09 23:00:00 1.9 5 Noroeste 14 Noroeste 0 -- -- 100
2018-02-09 22:00:00 2 6 Noroeste 16 Oeste 0 -- -- 100
2018-02-09 21:00:00 1.7 4 Oeste 32 Oeste 0.2 -- -- 100
2018-02-09 20:00:00 2.7 9 Noroeste 23 Oeste 0.6 -- -- 100
2018-02-09 19:00:00 3 4 Noroeste 27 Norte 1.2 -- -- 100
2018-02-09 18:00:00 3.5 12 Norte 36 Noroeste 2 -- -- 100
2018-02-09 17:00:00 4 12 Norte 33 Norte 4.8 -- -- 100
2018-02-09 16:00:00 3.5 11 Noroeste 24 Noroeste 2.8 -- -- 100
2018-02-09 15:00:00 1.5 3 Sur 9 Sudeste 2.6 -- -- 100
2018-02-09 14:00:00 1.1 5 Sur 9 Sudeste 1.8 -- -- 100
2018-02-09 13:00:00 1.1 5 Sudeste 9 Sudeste 1.4 -- -- 100
2018-02-09 12:00:00 0.9 3 Sudeste 9 Sudeste 0.6 -- -- 100
2018-02-09 11:00:00 0.3 6 Sudeste 9 Sur 0.4 -- -- 100
2018-02-09 10:00:00 -0.5 4 Sur 9 Sudeste 0 -- -- 100
2018-02-09 09:00:00 -1.2 3 Sur 6 Sudoeste 0 -- -- 100
2018-02-09 08:00:00 -1.7 4 Sur 13 Sudeste 0 -- -- 100
2018-02-09 07:00:00 -2.4 7 Sudeste 10 Sudeste 0 -- -- 100
2018-02-09 06:00:00 -2.2 3 Sur 12 Sudeste 0 -- -- 100
2018-02-09 05:00:00 -2 6 Sudeste 11 Sudeste 0 -- -- 100
2018-02-09 04:00:00 -1.8 5 Sudeste 12 Sudeste 0.2 -- -- 100
2018-02-09 03:00:00 -1.6 6 Sudeste 12 Sudeste 0 -- -- 100
2018-02-09 02:00:00 -1.6 5 Sudeste 12 Sudeste 0 -- -- 100
2018-02-09 01:00:00 -1.5 6 Sudeste 12 Sudeste 0.2 -- -- 100
2018-02-09 00:00:00 -1.4 6 Sudeste 10 Sudeste 0 -- -- 100
2018-02-08 23:00:00 -1.1 5 Sudeste 10 Sudeste 0 -- -- 100
2018-02-08 22:00:00 -1 7 Sur 9 Sur 0 -- -- 100
2018-02-08 21:00:00 -0.7 3 Sur 5 Sur 0 -- -- 100
2018-02-08 20:00:00 -0.1 3 Sur 5 Sudeste 0.4 -- -- 100
2018-02-08 19:00:00 0.1 3 Sudoeste 7 Sudeste 0.6 -- -- 100
2018-02-08 18:00:00 0.9 2 Sudoeste 6 Noroeste 1.2 -- -- 100
2018-02-08 17:00:00 1.9 2 Oeste 16 Noroeste 2.6 -- -- 100
2018-02-08 16:00:00 1.7 4 Noroeste 9 Noroeste 2.2 -- -- 100
2018-02-08 15:00:00 0.9 6 Noroeste 18 Oeste 3 -- -- 100
2018-02-08 14:00:00 1.3 5 Noroeste 12 Oeste 1.4 -- -- 100
2018-02-08 13:00:00 0.7 5 Oeste 12 Noroeste 0.6 -- -- 100
2018-02-08 12:00:00 0.3 3 Noroeste 10 Sudoeste 0.6 -- -- 100
2018-02-08 11:00:00 -0.2 4 Noroeste 12 Oeste 0.2 -- -- 100
2018-02-08 10:00:00 -0.3 5 Noroeste 9 Oeste 0.2 -- -- 100
2018-02-08 09:00:00 -0.3 5 Noroeste 10 Oeste 0.2 -- -- 100
2018-02-08 08:00:00 -0.2 4 Oeste 13 Oeste 0.2 -- -- 100
2018-02-08 07:00:00 -0.3 5 Noroeste 14 Oeste 0.2 -- -- 100
2018-02-08 06:00:00 -0.2 4 Noroeste 13 Noroeste 0 -- -- 100
2018-02-08 05:00:00 -0.6 6 Oeste 16 Norte 0.2 -- -- 100
2018-02-08 04:00:00 -0.4 6 Noroeste 15 Oeste 0.2 -- -- 100
2018-02-08 03:00:00 -0.5 6 Oeste 13 Noroeste 0 -- -- 100
2018-02-08 02:00:00 -0.6 0 Calma 14 Oeste 0 -- -- 100
2018-02-08 01:00:00 -0.4 8 Oeste 12 Oeste 0 -- -- 100
2018-02-08 00:00:00 -0.2 5 Noroeste 18 Oeste 0.2 -- -- 100
2018-02-07 23:00:00 -0.2 5 Noroeste 11 Noroeste 0 -- -- 100
2018-02-07 22:00:00 -0.5 3 Oeste 10 Oeste 0 -- -- 100
2018-02-07 21:00:00 -0.5 5 Oeste 13 Oeste 0.2 -- -- 100
2018-02-07 20:00:00 -0.3 5 Oeste 17 Oeste 0.2 -- -- 100
2018-02-07 19:00:00 -0.1 11 Oeste 19 Oeste 0.4 -- -- 100
2018-02-07 18:00:00 0.1 4 Noroeste 18 Noroeste 0.6 -- -- 100
2018-02-07 17:00:00 0.3 6 Noroeste 20 Oeste 0.4 -- -- 100
2018-02-07 16:00:00 0.6 6 Noroeste 16 Noroeste 1.2 -- -- 100
2018-02-07 15:00:00 0.7 5 Noroeste 17 Noroeste 0.8 -- -- 100
2018-02-07 14:00:00 2.9 5 Oeste 10 Oeste 3.4 -- -- 91
2018-02-07 13:00:00 2.1 2 Nordeste 7 Nordeste 2.8 -- -- 99
2018-02-07 12:00:00 0.9 0 Calma 14 Noroeste 1 -- -- 100
2018-02-07 11:00:00 0 2 Noroeste 11 Norte 0.4 -- -- 100
2018-02-07 10:00:00 0.1 0 Calma 3 Oeste 0.2 -- -- 100
2018-02-07 09:00:00 -0.4 3 Norte 10 Oeste 0 -- -- 100
2018-02-07 08:00:00 -0.4 4 Oeste 8 Oeste 0.2 -- -- 100
2018-02-07 07:00:00 -0.4 4 Noroeste 7 Norte 0.2 -- -- 100
2018-02-07 06:00:00 -0.3 2 Norte 6 Noroeste 0.2 -- -- 100
2018-02-07 05:00:00 -0.1 0 Calma 3 Este 0.2 -- -- 100
2018-02-07 04:00:00 -0.1 0 Calma 10 Noroeste 0.2 -- -- 100
2018-02-07 03:00:00 0 3 Noroeste 10 Oeste 0.2 -- -- 100
2018-02-07 02:00:00 -0.1 4 Oeste 13 Noroeste 0.2 -- -- 100
2018-02-07 01:00:00 -0.2 5 Oeste 13 Oeste 0.2 -- -- 100
2018-02-07 00:00:00 -0.2 8 Noroeste 18 Oeste 0.2 -- -- 100
2018-02-06 23:00:00 -0.1 4 Noroeste 13 Nordeste 0 -- -- 100
2018-02-06 22:00:00 0.1 4 Noroeste 10 Oeste 0.2 -- -- 100
2018-02-06 21:00:00 0.3 6 Noroeste 15 Noroeste 0.2 -- -- 100
2018-02-06 20:00:00 0.6 4 Oeste 17 Oeste 0 -- -- 100
2018-02-06 19:00:00 0.8 8 Oeste 16 Sudoeste 0 -- -- 100
2018-02-06 18:00:00 1.1 8 Oeste 13 Oeste 0 -- -- 100
2018-02-06 17:00:00 1 4 Oeste 12 Este 0.8 -- -- 100
2018-02-06 16:00:00 0.6 4 Noroeste 18 Norte 0.4 -- -- 100
2018-02-06 15:00:00 2.1 6 Noroeste 16 Noroeste 1.6 -- -- 100
2018-02-06 14:00:00 1.1 7 Nordeste 19 Nordeste 0.4 -- -- 98
2018-02-06 13:00:00 2.1 7 Noroeste 17 Sudoeste 0 -- -- 93
2018-02-06 12:00:00 1.8 6 Norte 15 Norte 0.2 -- -- 86
2018-02-06 11:00:00 2.4 8 Norte 16 Norte 0.4 -- -- 76
2018-02-06 10:00:00 0.8 4 Noroeste 14 Norte 0 -- -- 84
2018-02-06 09:00:00 0.6 5 Norte 15 Oeste 0 -- -- 84
2018-02-06 08:00:00 0.5 5 Norte 17 Norte 0 -- -- 91
2018-02-06 07:00:00 0.1 4 Oeste 13 Noroeste 0.2 -- -- 96
2018-02-06 06:00:00 0 4 Oeste 13 Oeste 0 -- -- 100
2018-02-06 05:00:00 0.4 3 Oeste 15 Nordeste 0.4 -- -- 100
2018-02-06 04:00:00 0.6 7 Nordeste 18 Nordeste 0.4 -- -- 100
2018-02-06 03:00:00 0.7 6 Noroeste 21 Norte 0.8 -- -- 100
2018-02-06 02:00:00 0.6 5 Noroeste 23 Noroeste 1.4 -- -- 100
2018-02-06 01:00:00 0.7 8 Norte 24 Norte 1.4 -- -- 100
2018-02-06 00:00:00 0.5 7 Noroeste 22 Nordeste 1.2 -- -- 100
2018-02-05 23:00:00 1.4 5 Norte 22 Norte 2 -- -- 100
2018-02-05 22:00:00 1.9 7 Norte 27 Noroeste 3.4 -- -- 100
2018-02-05 21:00:00 1.2 6 Noroeste 14 Oeste 2.4 -- -- 100
2018-02-05 20:00:00 0.9 5 Oeste 9 Oeste 3.8 -- -- 100
2018-02-05 19:00:00 1.1 4 Sudoeste 18 Noroeste 3.2 -- -- 100
2018-02-05 18:00:00 1.8 5 Noroeste 15 Norte 2 -- -- 100
2018-02-05 17:00:00 2 4 Norte 14 Norte 1.6 -- -- 100
2018-02-05 16:00:00 2.1 6 Norte 25 Noroeste 0.8 -- -- 100
2018-02-05 15:00:00 1.9 7 Norte 16 Nordeste 1.8 -- -- 100
2018-02-05 14:00:00 2 5 Norte 17 Noroeste 0.6 -- -- 100
2018-02-05 13:00:00 2.4 3 Norte 17 Norte 1 -- -- 100
2018-02-05 12:00:00 2.2 5 Norte 13 Norte 1.6 -- -- 100
2018-02-05 11:00:00 2.2 6 Noroeste 16 Noroeste 1.8 -- -- 100
2018-02-05 10:00:00 2.2 6 Sudeste 24 Sudeste 1.2 -- -- 100
2018-02-05 09:00:00 2.4 4 Norte 14 Norte 0.2 -- -- 100
2018-02-05 08:00:00 2.4 4 Este 18 Este 1 -- -- 100
2018-02-05 07:00:00 2.3 8 Este 19 Este 1.2 -- -- 100
2018-02-05 06:00:00 2.4 6 Este 17 Este 0 -- -- 100
2018-02-05 05:00:00 2.3 4 Este 24 Sudeste 0.2 -- -- 100
2018-02-05 04:00:00 2.4 6 Este 16 Sudeste 0.4 -- -- 100
2018-02-05 03:00:00 2.6 7 Sudeste 29 Este 0.2 -- -- 100
2018-02-05 02:00:00 2.5 9 Sudeste 30 Este 0 -- -- 100
2018-02-05 01:00:00 2.1 0 Calma 5 Sudoeste 0 -- -- 100
2018-02-05 00:00:00 2.1 2 Oeste 5 Oeste 0 -- -- 100
2018-02-04 23:00:00 2.2 2 Oeste 6 Oeste 0 -- -- 100
2018-02-04 22:00:00 2.2 2 Sudeste 11 Sudeste 0.8 -- -- 100
2018-02-04 21:00:00 2.4 4 Oeste 10 Noroeste 0.4 -- -- 100
2018-02-04 20:00:00 2.7 6 Oeste 11 Noroeste 0.2 -- -- 100
2018-02-04 19:00:00 3 4 Noroeste 10 Oeste 0 -- -- 100
2018-02-04 18:00:00 3.6 5 Oeste 10 Oeste 0 -- -- 100
2018-02-04 17:00:00 4.1 4 Noroeste 16 Norte 0.4 -- -- 97
2018-02-04 16:00:00 5.5 5 Norte 14 Oeste 0 -- -- 94
2018-02-04 15:00:00 5.1 5 Norte 17 Oeste 0 -- -- 96
2018-02-04 14:00:00 4.8 3 Noroeste 13 Noroeste 0 -- -- 99
2018-02-04 13:00:00 4.1 6 Oeste 17 Sudoeste 0 -- -- 99
2018-02-04 12:00:00 3.6 9 Noroeste 17 Oeste 0 -- -- 99
2018-02-04 11:00:00 3 6 Noroeste 14 Oeste 0 -- -- 100
2018-02-04 10:00:00 1.9 5 Oeste 13 Noroeste 0.2 -- -- 100
2018-02-04 09:00:00 1.3 5 Noroeste 11 Noroeste 0 -- -- 100
2018-02-04 08:00:00 1.2 6 Noroeste 13 Noroeste 0 -- -- 100
2018-02-04 07:00:00 1.2 5 Noroeste 19 Noroeste 0 -- -- 100
2018-02-04 06:00:00 1.3 9 Noroeste 21 Oeste 0 -- -- 100
2018-02-04 05:00:00 1.3 5 Noroeste 14 Noroeste 0 -- -- 100
2018-02-04 04:00:00 1.3 4 Noroeste 13 Noroeste 0.4 -- -- 100
2018-02-04 03:00:00 1.2 3 Norte 12 Noroeste 0.6 -- -- 100
2018-02-04 02:00:00 1.1 3 Norte 17 Noroeste 1.6 -- -- 100
2018-02-04 01:00:00 1.8 5 Noroeste 14 Noroeste 0.2 -- -- 100
2018-02-04 00:00:00 2 5 Noroeste 15 Oeste 3.2 -- -- 100
2018-02-03 23:00:00 2.7 8 Noroeste 29 Oeste 2.2 -- -- 100
2018-02-03 22:00:00 3.2 9 Noroeste 24 Noroeste 2.4 -- -- 100
2018-02-03 21:00:00 3.2 7 Noroeste 23 Noroeste 2.4 -- -- 100
2018-02-03 20:00:00 3.2 8 Noroeste 44 Oeste 3.8 -- -- 100
2018-02-03 19:00:00 4.1 9 Noroeste 31 Noroeste 2 -- -- 100
2018-02-03 18:00:00 4.8 8 Noroeste 21 Oeste 3.6 -- -- 100
2018-02-03 17:00:00 4.6 6 Norte 19 Oeste 4 -- -- 100
2018-02-03 16:00:00 4.1 6 Noroeste 18 Oeste 4 -- -- 100
2018-02-03 15:00:00 3.2 6 Sudeste 10 Sudeste 1.8 -- -- 100
2018-02-03 14:00:00 2.8 4 Sudeste 11 Sudeste 0.2 -- -- 100
2018-02-03 13:00:00 2.8 4 Sudeste 11 Este 0.2 -- -- 100
2018-02-03 12:00:00 2.5 5 Sudeste 8 Sudeste 1.2 -- -- 100
2018-02-03 11:00:00 2 3 Sudeste 10 Noroeste 1 -- -- 100
2018-02-03 10:00:00 2.5 5 Noroeste 18 Noroeste 1.2 -- -- 100
2018-02-03 09:00:00 2.1 5 Noroeste 13 Noroeste 0.8 -- -- 100
2018-02-03 08:00:00 1.9 4 Noroeste 23 Oeste 2.4 -- -- 100
2018-02-03 07:00:00 1.9 10 Noroeste 21 Noroeste 1 -- -- 100
2018-02-03 06:00:00 1.3 10 Noroeste 29 Noroeste 2.4 -- -- 100
2018-02-03 05:00:00 1.5 9 Noroeste 22 Noroeste 2 -- -- 100
2018-02-03 04:00:00 0.6 9 Noroeste 29 Norte 2.4 -- -- 100
2018-02-03 03:00:00 1.1 10 Noroeste 21 Oeste 1.4 -- -- 100
2018-02-03 02:00:00 0.6 7 Noroeste 18 Oeste 1.2 -- -- 100
2018-02-03 01:00:00 0.6 7 Noroeste 18 Oeste 1 -- -- 100
2018-02-03 00:00:00 0.9 7 Noroeste 31 Noroeste 1.2 -- -- 100
2018-02-02 23:00:00 0.7 4 Noroeste 25 Oeste 0.6 -- -- 100
2018-02-02 22:00:00 1.1 8 Noroeste 21 Noroeste 1.2 -- -- 100
2018-02-02 21:00:00 0.9 8 Noroeste 21 Noroeste 2 -- -- 100
2018-02-02 20:00:00 0.9 5 Noroeste 17 Oeste 0.6 -- -- 100
2018-02-02 19:00:00 1.1 6 Noroeste 15 Oeste 2 -- -- 100
2018-02-02 18:00:00 0.8 7 Noroeste 15 Noroeste 1.6 -- -- 100
2018-02-02 17:00:00 0.9 6 Noroeste 20 Este 1.6 -- -- 100
2018-02-02 16:00:00 2.6 9 Noroeste 22 Oeste 3 -- -- 100
2018-02-02 15:00:00 1.8 5 Noroeste 15 Noroeste 2.4 -- -- 100
2018-02-02 14:00:00 1.6 5 Noroeste 13 Noroeste 3 -- -- 100
2018-02-02 13:00:00 2.6 5 Oeste 15 Noroeste 5.2 -- -- 100
2018-02-02 12:00:00 1.4 6 Oeste 15 Oeste 2 -- -- 100
2018-02-02 11:00:00 0.3 6 Oeste 14 Oeste 0.6 -- -- 100
2018-02-02 10:00:00 0 5 Oeste 24 Noroeste 0.4 -- -- 100
2018-02-02 09:00:00 0 9 Noroeste 19 Noroeste 0.4 -- -- 100
2018-02-02 08:00:00 0 4 Oeste 9 Sudoeste 0.4 -- -- 100
2018-02-02 07:00:00 0 3 Oeste 4 Oeste 0.4 -- -- 100
2018-02-02 06:00:00 0.1 3 Oeste 13 Oeste 0.4 -- -- 100
2018-02-02 05:00:00 0 5 Oeste 11 Oeste 0.6 -- -- 100
2018-02-02 04:00:00 0 5 Noroeste 10 Sudeste 0.4 -- -- 100
2018-02-02 03:00:00 0.1 4 Oeste 13 Noroeste 0.8 -- -- 100
2018-02-02 02:00:00 0.1 4 Noroeste 13 Noroeste 0.2 -- -- 100
2018-02-02 01:00:00 0.1 3 Sudoeste 8 Oeste 0 -- -- 100
2018-02-02 00:00:00 0.6 3 Noroeste 17 Noroeste 2.6 -- -- 100
2018-02-01 23:00:00 1.2 6 Noroeste 17 Oeste 1.8 -- -- 100
2018-02-01 22:00:00 1.3 8 Noroeste 22 Oeste 0.8 -- -- 100
2018-02-01 21:00:00 0.9 10 Noroeste 20 Oeste 2.4 -- -- 100
2018-02-01 20:00:00 1 3 Oeste 6 Sudeste 0.8 -- -- 100
2018-02-01 19:00:00 1.5 3 Norte 19 Noroeste 1.2 -- -- 100
2018-02-01 18:00:00 1.4 4 Oeste 16 Noroeste 1.8 -- -- 100
2018-02-01 17:00:00 1.2 6 Noroeste 16 Oeste 2.6 -- -- 100
2018-02-01 16:00:00 1.1 9 Noroeste 25 Noroeste 4.6 -- -- 100
2018-02-01 15:00:00 2.9 9 Noroeste 18 Noroeste 1 -- -- 100
2018-02-01 14:00:00 2.3 8 Noroeste 28 Oeste 4.8 -- -- 100
2018-02-01 13:00:00 3.3 10 Noroeste 27 Noroeste 3 -- -- 100
2018-02-01 12:00:00 4 5 Noroeste 21 Oeste 2 -- -- 100
2018-02-01 11:00:00 3.8 4 Noroeste 24 Noroeste 0.4 -- -- 100
2018-02-01 10:00:00 3.8 13 Noroeste 33 Oeste 2.6 -- -- 100
2018-02-01 09:00:00 4.4 5 Norte 26 Noroeste 2.6 -- -- 100
2018-02-01 08:00:00 5.1 6 Norte 41 Noroeste 1.4 -- -- 100
2018-02-01 07:00:00 5 5 Noroeste 23 Norte 0.8 -- -- 100
2018-02-01 06:00:00 5.9 8 Noroeste 27 Oeste 4 -- -- 100
2018-02-01 05:00:00 6.5 10 Noroeste 30 Oeste 3 -- -- 100
2018-02-01 04:00:00 6.7 6 Norte 14 Noroeste 0.2 -- -- 100
2018-02-01 03:00:00 6.7 3 Norte 11 Norte 0.2 -- -- 100
2018-02-01 02:00:00 6.7 4 Noroeste 11 Noroeste 1 -- -- 100
2018-02-01 01:00:00 5.9 2 Norte 6 Norte 0.4 -- -- 100
2018-02-01 00:00:00 5.5 2 Sur 8 Sudeste 0 -- -- 100
2018-01-31 23:00:00 5.4 3 Sudeste 7 Sur 0 -- -- 100
2018-01-31 22:00:00 5.2 4 Oeste 13 Noroeste 0 -- -- 100
2018-01-31 21:00:00 5.9 6 Noroeste 18 Noroeste 0 -- -- 100
2018-01-31 20:00:00 5.9 5 Norte 18 Norte 0 -- -- 100
2018-01-31 19:00:00 6.3 6 Noroeste 16 Noroeste 0 -- -- 97
2018-01-31 18:00:00 8 3 Noroeste 14 Oeste 0 -- -- 89
2018-01-31 17:00:00 9.7 8 Oeste 17 Oeste 0 -- -- 81
2018-01-31 16:00:00 10.8 3 Oeste 9 Noroeste 0 -- -- 75
2018-01-31 15:00:00 11.6 5 Noroeste 13 Noroeste 0 -- -- 75
2018-01-31 14:00:00 11.1 0 Calma 10 Sudeste 0 -- -- 73
2018-01-31 13:00:00 8.7 2 Este 12 Noroeste 0 -- -- 82
2018-01-31 12:00:00 7 3 Nordeste 10 Noroeste 0 -- -- 95
2018-01-31 11:00:00 3.7 3 Sudoeste 13 Sur 0 -- -- 100
2018-01-31 10:00:00 1.7 4 Sur 17 Sudeste 0 -- -- 100
2018-01-31 09:00:00 0.3 9 Sudeste 17 Noroeste 0 -- -- 100
2018-01-31 08:00:00 1.1 8 Noroeste 24 Noroeste 0 -- -- 100
2018-01-31 07:00:00 2.6 4 Sudoeste 12 Sur 0 -- -- 99
2018-01-31 06:00:00 2.8 5 Sur 12 Sudeste 0 -- -- 99
2018-01-31 05:00:00 2.9 6 Sur 10 Sur 0 -- -- 100
2018-01-31 04:00:00 3.1 5 Sudoeste 11 Sudeste 0 -- -- 100
2018-01-31 03:00:00 3.3 5 Sur 10 Sudeste 0 -- -- 100
2018-01-31 02:00:00 3.1 4 Sur 7 Sudeste 0 -- -- 100
2018-01-31 01:00:00 2.9 5 Sur 10 Sur 0 -- -- 100
2018-01-31 00:00:00 2.7 7 Sudeste 15 Sudeste 0 -- -- 100
2018-01-30 23:00:00 3.3 3 Sur 6 Sudeste 0 -- -- 100
2018-01-30 22:00:00 3.5 2 Oeste 5 Sur 0 -- -- 100
2018-01-30 21:00:00 4.8 5 Sudeste 8 Sudeste 0 -- -- 99
2018-01-30 20:00:00 5 4 Sudoeste 6 Sudoeste 0 -- -- 98
2018-01-30 19:00:00 5.2 2 Sur 6 Sudoeste 0 -- -- 97
2018-01-30 18:00:00 6 5 Sudoeste 6 Sudoeste 0 -- -- 94
2018-01-30 17:00:00 6.9 4 Sudoeste 6 Sudeste 0 -- -- 89
2018-01-30 16:00:00 9 3 Sur 6 Sudeste 0 -- -- 80
2018-01-30 15:00:00 9.2 3 Sur 10 Sudeste 0 -- -- 75
2018-01-30 14:00:00 7.7 5 Sudeste 11 Sur 0 -- -- 84
2018-01-30 13:00:00 6.4 4 Sudeste 13 Sudeste 0 -- -- 87
2018-01-30 12:00:00 5 3 Sudeste 10 Este 0 -- -- 95
2018-01-30 11:00:00 4.6 4 Sudeste 7 Este 0 -- -- 99
2018-01-30 10:00:00 3.6 2 Sur 10 Sudeste 0 -- -- 100
2018-01-30 09:00:00 3.6 3 Sudeste 9 Sur 0 -- -- 100
2018-01-30 08:00:00 4 4 Sudeste 9 Sudeste 0 -- -- 100
2018-01-30 07:00:00 4.3 0 Calma 6 Este 0 -- -- 99
2018-01-30 06:00:00 4.5 0 Calma 7 Sudeste 0 -- -- 100
2018-01-30 05:00:00 4.6 0 Calma 6 Sur 0 -- -- 100
2018-01-30 04:00:00 4.6 2 Sudoeste 5 Sur 0 -- -- 100
2018-01-30 03:00:00 4.5 2 Sudoeste 7 Este 0 -- -- 100
2018-01-30 02:00:00 4.7 0 Calma 4 Nordeste 0 -- -- 100
2018-01-30 01:00:00 5.1 0 Calma 6 Oeste 0 -- -- 100
2018-01-30 00:00:00 5.7 0 Calma 9 Norte 0 -- -- 100
2018-01-29 23:00:00 5.9 2 Norte 6 Oeste 0 -- -- 100
2018-01-29 22:00:00 6.1 2 Nordeste 9 Oeste 0 -- -- 100
2018-01-29 21:00:00 6.3 3 Norte 12 Noroeste 0 -- -- 100
2018-01-29 20:00:00 6.4 6 Noroeste 15 Noroeste 0 -- -- 100
2018-01-29 19:00:00 6.9 8 Noroeste 16 Oeste 0 -- -- 95
2018-01-29 18:00:00 7.9 7 Noroeste 13 Oeste 0 -- -- 85
2018-01-29 17:00:00 10.3 4 Noroeste 14 Noroeste 0 -- -- 78
2018-01-29 16:00:00 12.7 5 Noroeste 11 Noroeste 0 -- -- 67
2018-01-29 15:00:00 12.5 5 Oeste 11 Oeste 0 -- -- 66
2018-01-29 14:00:00 12.9 6 Oeste 12 Noroeste 0 -- -- 63
2018-01-29 13:00:00 11.6 3 Sudeste 6 Sudeste 0 -- -- 73
2018-01-29 12:00:00 9.9 4 Sudeste 10 Sur 0 -- -- 72
2018-01-29 11:00:00 7.3 6 Sudeste 12 Sudeste 0 -- -- 82
2018-01-29 10:00:00 4.8 7 Sur 12 Sur 0 -- -- 92
2018-01-29 09:00:00 3.9 5 Sur 12 Sur 0 -- -- 95
2018-01-29 08:00:00 4 8 Sur 11 Sur 0 -- -- 95
2018-01-29 07:00:00 4.1 6 Sur 11 Sudeste 0 -- -- 95
2018-01-29 06:00:00 3.8 5 Sur 13 Sur 0 -- -- 97
2018-01-29 05:00:00 4.1 8 Sur 12 Sudeste 0 -- -- 97
2018-01-29 04:00:00 4.1 9 Sur 12 Sudeste 0 -- -- 99
2018-01-29 03:00:00 4.3 5 Sur 12 Sur 0 -- -- 98
2018-01-29 02:00:00 4.8 6 Sur 13 Sudeste 0 -- -- 97
2018-01-29 01:00:00 4.3 7 Sur 12 Sudeste 0 -- -- 100
2018-01-29 00:00:00 4.2 6 Sur 10 Sur 0 -- -- 100
2018-01-28 23:00:00 4.7 7 Sur 11 Sur 0 -- -- 100
2018-01-28 22:00:00 4.2 6 Sur 9 Sur 0 -- -- 100
2018-01-28 21:00:00 4.8 6 Sur 9 Sudeste 0 -- -- 100
2018-01-28 20:00:00 4.5 0 Calma 6 Sur 0 -- -- 100
2018-01-28 19:00:00 4.8 0 Calma 6 Oeste 0 -- -- 98
2018-01-28 18:00:00 5.6 4 Oeste 10 Oeste 0 -- -- 94
2018-01-28 17:00:00 6.4 3 Sudoeste 6 Sudoeste 0 -- -- 86
2018-01-28 16:00:00 8.5 4 Sur 7 Sudeste 0 -- -- 81
2018-01-28 15:00:00 10 2 Este 9 Norte 0 -- -- 73
2018-01-28 14:00:00 9.4 2 Sudeste 9 Sudeste 0 -- -- 71
2018-01-28 13:00:00 7.9 4 Sudeste 8 Sudeste 0 -- -- 75
2018-01-28 12:00:00 5.7 4 Sudeste 9 Sudeste 0 -- -- 93
2018-01-28 11:00:00 3.5 4 Sudeste 8 Sudeste 0 -- -- 100
2018-01-28 10:00:00 1.9 2 Sur 6 Sur 0 -- -- 100
2018-01-28 09:00:00 1.4 5 Sur 8 Sur 0 -- -- 100
2018-01-28 08:00:00 1.4 5 Sudeste 7 Sur 0 -- -- 100
2018-01-28 07:00:00 1 4 Sur 9 Sur 0 -- -- 100
2018-01-28 06:00:00 1.7 3 Sur 6 Sur 0 -- -- 100
2018-01-28 05:00:00 2.3 2 Sur 8 Sudeste 0 -- -- 100
2018-01-28 04:00:00 1.8 2 Sur 8 Sudeste 0 -- -- 100
2018-01-28 03:00:00 1.7 3 Sudoeste 5 Sudoeste 0 -- -- 100
2018-01-28 02:00:00 1.9 4 Sudoeste 5 Sudoeste 0 -- -- 100
2018-01-28 01:00:00 2.1 0 Calma 5 Sudoeste 0 -- -- 100
2018-01-28 00:00:00 2.2 4 Sudoeste 5 Sudoeste 0 -- -- 100
2018-01-27 23:00:00 2.7 0 Calma 6 Sur 0 -- -- 100
2018-01-27 22:00:00 3.4 3 Sudoeste 9 Sudeste 0 -- -- 97
2018-01-27 21:00:00 4.8 3 Sur 10 Sur 0 -- -- 94
2018-01-27 20:00:00 5.1 3 Oeste 8 Norte 0 -- -- 95
2018-01-27 19:00:00 5.1 3 Norte 11 Nordeste 0 -- -- 91
2018-01-27 18:00:00 5.7 5 Norte 14 Norte 0 -- -- 90
2018-01-27 17:00:00 6.3 7 Nordeste 17 Norte 0 -- -- 89
2018-01-27 16:00:00 6.6 5 Noroeste 20 Norte 0 -- -- 86
2018-01-27 15:00:00 6.5 8 Norte 31 Oeste 0 -- -- 82
2018-01-27 14:00:00 6.5 10 Norte 24 Nordeste 0 -- -- 80
2018-01-27 13:00:00 6.8 5 Norte 21 Norte 0 -- -- 89
2018-01-27 12:00:00 5.4 7 Norte 22 Noroeste 0.6 -- -- 98
2018-01-27 11:00:00 5.6 9 Norte 26 Nordeste 0 -- -- 96
2018-01-27 10:00:00 5 4 Norte 24 Norte 0 -- -- 100
2018-01-27 09:00:00 4.7 7 Norte 22 Noroeste 0.2 -- -- 100
2018-01-27 08:00:00 4.3 7 Noroeste 21 Oeste 0 -- -- 100
2018-01-27 07:00:00 4 11 Oeste 22 Oeste 0 -- -- 100
2018-01-27 06:00:00 4.2 6 Noroeste 28 Oeste 1.4 -- -- 100
2018-01-27 05:00:00 4.1 6 Noroeste 31 Noroeste 1 -- -- 100
2018-01-27 04:00:00 4.4 8 Noroeste 25 Norte 1 -- -- 100
2018-01-27 03:00:00 4.6 8 Norte 22 Nordeste 1.6 -- -- 100
2018-01-27 02:00:00 4.8 4 Noroeste 22 Oeste 1.4 -- -- 100
2018-01-27 01:00:00 4.7 10 Oeste 24 Oeste 0.2 -- -- 100
2018-01-27 00:00:00 4.7 13 Noroeste 31 Oeste 1.4 -- -- 100
2018-01-26 23:00:00 4.4 3 Oeste 26 Noroeste 0.8 -- -- 100
2018-01-26 22:00:00 4.2 8 Noroeste 47 Nordeste 2 -- -- 100
2018-01-26 21:00:00 5 7 Noroeste 32 Noroeste 0 -- -- 100
2018-01-26 20:00:00 4.8 8 Noroeste 27 Noroeste 0.6 -- -- 100
2018-01-26 19:00:00 4.6 9 Noroeste 33 Oeste 2.6 -- -- 100
2018-01-26 18:00:00 4.8 13 Noroeste 30 Noroeste 0.6 -- -- 100
2018-01-26 17:00:00 4.9 11 Oeste 23 Oeste 2.2 -- -- 100
2018-01-26 16:00:00 4.8 9 Oeste 26 Oeste 0.8 -- -- 100
2018-01-26 15:00:00 5.6 12 Noroeste 28 Oeste 0.2 -- -- 100
2018-01-26 14:00:00 5.1 10 Noroeste 23 Oeste 0 -- -- 100
2018-01-26 13:00:00 4.2 9 Noroeste 23 Oeste 0.8 -- -- 100
2018-01-26 12:00:00 4 4 Noroeste 15 Noroeste 1.4 -- -- 100
2018-01-26 11:00:00 3.9 6 Noroeste 19 Noroeste 2 -- -- 100
2018-01-26 10:00:00 3.8 7 Noroeste 28 Noroeste 1.8 -- -- 100
2018-01-26 09:00:00 4 14 Noroeste 39 Noroeste 0.4 -- -- 100
2018-01-26 08:00:00 4.1 13 Noroeste 30 Noroeste 2.2 -- -- 100
2018-01-26 07:00:00 4 12 Noroeste 23 Noroeste 1.8 -- -- 100
2018-01-26 06:00:00 3.8 11 Noroeste 32 Noroeste 3.2 -- -- 100
2018-01-26 05:00:00 3.9 10 Noroeste 33 Oeste 0.4 -- -- 100
2018-01-26 04:00:00 4.5 12 Noroeste 35 Noroeste 2.4 -- -- 100
2018-01-26 03:00:00 4.6 11 Noroeste 30 Oeste 0.2 -- -- 100
2018-01-26 02:00:00 4.4 14 Noroeste 29 Noroeste 0.2 -- -- 100
2018-01-26 01:00:00 4.3 9 Noroeste 22 Noroeste 0.4 -- -- 100
2018-01-26 00:00:00 4.2 9 Noroeste 22 Oeste 0.6 -- -- 100
2018-01-25 23:00:00 4.5 6 Noroeste 23 Noroeste 0.2 -- -- 100
2018-01-25 22:00:00 3.9 6 Noroeste 17 Oeste 0.2 -- -- 100
2018-01-25 21:00:00 4.3 8 Noroeste 25 Oeste 1 -- -- 100
2018-01-25 20:00:00 4.3 9 Noroeste 22 Oeste 0.8 -- -- 100
2018-01-25 19:00:00 4.3 9 Noroeste 27 Norte 2.2 -- -- 100
2018-01-25 18:00:00 4.8 8 Noroeste 26 Noroeste 1.8 -- -- 100
2018-01-25 17:00:00 5.1 6 Noroeste 32 Noroeste 0.2 -- -- 100
2018-01-25 16:00:00 6.1 14 Noroeste 31 Norte 0 -- -- 100
2018-01-25 15:00:00 6.6 3 Noroeste 13 Noroeste 0 -- -- 100
2018-01-25 14:00:00 6.9 3 Norte 18 Noroeste 0 -- -- 100
2018-01-25 13:00:00 7.3 9 Norte 20 Noroeste 0 -- -- 97
2018-01-25 12:00:00 7.9 6 Norte 18 Sudoeste 0 -- -- 92
2018-01-25 11:00:00 8.1 7 Sudeste 33 Sudeste 0 -- -- 88
2018-01-25 10:00:00 9.3 6 Norte 33 Norte 0 -- -- 79
2018-01-25 09:00:00 9.8 8 Oeste 23 Noroeste 0 -- -- 72
2018-01-25 08:00:00 9.8 5 Nordeste 24 Este 0 -- -- 73
2018-01-25 07:00:00 9.4 9 Sudeste 26 Sudeste 0 -- -- 75
2018-01-25 06:00:00 9.7 7 Sur 21 Oeste 0 -- -- 72
2018-01-25 05:00:00 9.1 5 Este 18 Norte 0 -- -- 75
2018-01-25 04:00:00 8.1 4 Sur 17 Este 0 -- -- 81
2018-01-25 03:00:00 8 6 Sur 14 Sudeste 0 -- -- 80
2018-01-25 02:00:00 7.6 5 Sudeste 15 Nordeste 0 -- -- 81
2018-01-25 01:00:00 8.1 7 Sudeste 26 Este 0 -- -- 78
2018-01-25 00:00:00 8.6 9 Sudeste 33 Sudeste 0 -- -- 71
2018-01-24 23:00:00 9.1 10 Sudeste 29 Sudeste 0 -- -- 68
2018-01-24 22:00:00 8.4 6 Sudoeste 23 Sudeste 0 -- -- 71
2018-01-24 21:00:00 9 8 Sudeste 32 Sudeste 0 -- -- 62
2018-01-24 20:00:00 9.4 11 Sudeste 24 Este 0 -- -- 56
2018-01-24 19:00:00 8.5 3 Sur 19 Sur 0 -- -- 68
2018-01-24 18:00:00 10.9 7 Sur 22 Oeste 0 -- -- 62
2018-01-24 17:00:00 12.5 9 Noroeste 30 Noroeste 0 -- -- 49
2018-01-24 16:00:00 13.6 6 Norte 23 Sudoeste 0 -- -- 50
2018-01-24 15:00:00 14 7 Sur 25 Sur 0 -- -- 53
2018-01-24 14:00:00 13.2 8 Sudeste 22 Sudeste 0 -- -- 63
2018-01-24 13:00:00 12 3 Oeste 10 Noroeste 0 -- -- 80
2018-01-24 12:00:00 11.4 4 Sudeste 13 Sudeste 0 -- -- 81
2018-01-24 11:00:00 8.3 4 Noroeste 15 Sur 0 -- -- 94
2018-01-24 10:00:00 8 3 Noroeste 26 Sur 0 -- -- 93
2018-01-24 09:00:00 7.8 8 Sur 28 Sur 0 -- -- 97
2018-01-24 08:00:00 6.3 8 Sur 21 Sudeste 0 -- -- 100
2018-01-24 07:00:00 5.6 7 Sur 15 Sur 0 -- -- 100
2018-01-24 06:00:00 5.7 9 Sur 22 Sudeste 0 -- -- 100
2018-01-24 05:00:00 6.3 6 Sudeste 17 Sudeste 0 -- -- 100
2018-01-24 04:00:00 6.6 7 Sudeste 17 Sudeste 0 -- -- 100
2018-01-24 03:00:00 6.7 6 Sudeste 14 Sudeste 0 -- -- 100
2018-01-24 02:00:00 7.2 6 Sudeste 13 Sudeste 0 -- -- 100
2018-01-24 01:00:00 7.5 7 Sudeste 12 Sudeste 0 -- -- 100
2018-01-24 00:00:00 7.8 5 Sudeste 10 Sudeste 0 -- -- 100
2018-01-23 23:00:00 8.1 3 Sur 7 Sur 0 -- -- 100
2018-01-23 22:00:00 7.9 2 Sudeste 5 Sur 0 -- -- 100
2018-01-23 21:00:00 8.4 3 Sudoeste 5 Sudoeste 0 -- -- 100
2018-01-23 20:00:00 9.4 3 Sudoeste 5 Sudoeste 0 -- -- 100
2018-01-23 19:00:00 10.3 2 Sudoeste 5 Oeste 0 -- -- 100
2018-01-23 18:00:00 11.2 0 Calma 7 Sudeste 0 -- -- 96
2018-01-23 17:00:00 12 3 Este 8 Este 0 -- -- 95
2018-01-23 16:00:00 12.2 3 Norte 6 Norte 0 -- -- 93
2018-01-23 15:00:00 12.3 3 Este 7 Nordeste 0 -- -- 97
2018-01-23 14:00:00 12.4 2 Noroeste 5 Sudeste 0 -- -- 96
2018-01-23 13:00:00 12 3 Este 6 Este 0 -- -- 100
2018-01-23 12:00:00 11.5 2 Sudeste 5 Sudeste 0 -- -- 100
2018-01-23 11:00:00 10.9 3 Sudeste 4 Sudeste 0 -- -- 100
2018-01-23 10:00:00 10.1 2 Sudeste 5 Sudeste 0 -- -- 100
2018-01-23 09:00:00 9.6 0 Calma 4 Sudoeste 0 -- -- 100
2018-01-23 08:00:00 9.6 3 Oeste 8 Noroeste 0 -- -- 100
2018-01-23 07:00:00 9.4 4 Oeste 7 Oeste 0 -- -- 100
2018-01-23 06:00:00 9.8 2 Noroeste 12 Noroeste 0 -- -- 100
2018-01-23 05:00:00 10 4 Noroeste 12 Noroeste 0 -- -- 100
2018-01-23 04:00:00 10.1 4 Noroeste 13 Noroeste 0 -- -- 100
2018-01-23 03:00:00 10.1 4 Noroeste 14 Noroeste 0 -- -- 100
2018-01-23 02:00:00 10.1 6 Noroeste 15 Noroeste 0 -- -- 100
2018-01-23 01:00:00 10.1 6 Noroeste 16 Oeste 0 -- -- 100
2018-01-23 00:00:00 10 5 Noroeste 14 Noroeste 0 -- -- 100
2018-01-22 23:00:00 10 5 Noroeste 16 Noroeste 0 -- -- 100
2018-01-22 22:00:00 10 6 Noroeste 16 Noroeste 0 -- -- 100
2018-01-22 21:00:00 9.9 4 Noroeste 18 Oeste 0 -- -- 100
2018-01-22 20:00:00 9.8 6 Noroeste 15 Oeste 0 -- -- 100
2018-01-22 19:00:00 9.8 6 Noroeste 13 Noroeste 0 -- -- 100
2018-01-22 18:00:00 10 3 Norte 10 Oeste 0 -- -- 100
2018-01-22 17:00:00 10.5 4 Noroeste 13 Noroeste 0 -- -- 100
2018-01-22 16:00:00 11.5 4 Noroeste 14 Noroeste 0 -- -- 92
2018-01-22 15:00:00 12.1 6 Noroeste 13 Noroeste 0 -- -- 85
2018-01-22 14:00:00 12.1 3 Noroeste 17 Oeste 0 -- -- 85
2018-01-22 13:00:00 11.2 6 Noroeste 14 Oeste 0 -- -- 90
2018-01-22 12:00:00 9.4 6 Sudeste 10 Sudeste 0 -- -- 100
2018-01-22 11:00:00 8.5 5 Sudeste 12 Sudeste 0 -- -- 100
2018-01-22 10:00:00 8.1 3 Sur 8 Sur 0 -- -- 100
2018-01-22 09:00:00 7.9 3 Sur 7 Sur 0 -- -- 100
2018-01-22 08:00:00 8.1 4 Sur 6 Sur 0 -- -- 100
2018-01-22 07:00:00 7.9 3 Sur 8 Sur 0 -- -- 100
2018-01-22 06:00:00 7.3 0 Calma 6 Sur 0 -- -- 100
2018-01-22 05:00:00 7.2 0 Calma 4 Sur 0 -- -- 100
2018-01-22 04:00:00 7.8 3 Sudoeste 5 Sur 0 -- -- 100
2018-01-22 03:00:00 8.9 3 Sudoeste 4 Sudoeste 0 -- -- 100
2018-01-22 02:00:00 9.5 0 Calma 4 Sudoeste 0 -- -- 100
2018-01-22 01:00:00 9.7 3 Oeste 4 Oeste 0 -- -- 100
2018-01-22 00:00:00 9.8 4 Sudoeste 5 Sudoeste 0 -- -- 100